Weather observations for the past three days for
Wiley Post-Will Rogers Memorial Airport
Metric (Imperial)
Date Time (akdt) Wind (kph) Vis. (km) Weather Sky Cond. Temperature (ºC) Relative Humidity Wind Chill (°C) Heat Index (°C) Pressure Precipitation (cm)
Air Dwpt 6 hour altimeter (cm) sea level (mb) 1 hr 3 hr 6 hr
Max. Min.
07 04:53 NE 20 16.09 Overcast OVC007 -5.6 -7.2 89% -12 76.53 1020.3
07 03:53 NE 24 16.09 Overcast OVC006 -5 -6.7 -2.8 -5 88% -12 76.48 1019.6
07 02:53 NE 20 16.09 Overcast OVC007 -4.4 -6.1 88% -10 76.43 1019.0
07 01:53 NE 17 16.09 Overcast BKN010 OVC019 -4.4 -6.1 88% -10 76.38 1018.4
07 00:53 NE 13 16.09 Overcast OVC010 -3.9 -5.6 88% -8 76.33 1017.8
06 23:53 NE 15 14.48 Overcast OVC009 -3.3 -5 88% -8 76.28 1016.8
06 22:53 NE 11 14.48 Overcast BKN007 OVC014 -3.3 -4.4 92% -7 76.23 1016.2
06 21:53 NE 13 16.09 Overcast OVC010 -2.8 -5 -2.8 -3.3 85% -7 76.17 1015.5
06 20:53 NE 9 16.09 Overcast OVC012 -2.8 -4.4 89% -6 76.12 1015.0
06 19:53 NE 13 16.09 Overcast OVC012 -2.8 -5 85% -7 76.07 1014.3
06 18:53 NE 11 16.09 Overcast OVC010 -2.8 -5 85% -7 76.02 1013.7
06 17:53 N 9 16.09 Overcast OVC010 -2.8 -5 85% -6 75.97 1013.1
06 16:53 N 11 16.09 Overcast OVC010 -2.8 -5 85% -7 75.95 1012.5
06 15:53 N 9 16.09 Overcast OVC010 -3.3 -5.6 -3.3 -6.7 84% -7 75.92 1012.1
06 14:53 N 13 16.09 Overcast OVC010 -3.9 -6.1 85% -8 75.87 1011.6
06 13:53 NW 15 16.09 Overcast OVC010 -4.4 -6.7 84% -9 75.84 1011.3
06 12:53 NW 15 16.09 Overcast OVC010 -5.6 -7.8 85% -11 75.82 1011.0
06 11:53 NW 19 16.09 Overcast OVC010 -6.1 -8.3 85% -12 75.82 1010.7
06 10:53 NW 22 16.09 Overcast OVC012 -6.1 -8.9 81% -13 75.79 1010.6
06 09:53 N 19 16.09 Overcast OVC011 -6.7 -8.9 -5.6 -6.7 85% -13 75.79 1010.6
06 08:53 NW 17 14.48 Overcast OVC011 -6.7 -8.9 85% -13 75.79 1010.5
06 07:53 N 20 16.09 Overcast OVC010 -6.7 -8.9 85% -13 75.79 1010.5
06 06:53 NW 19 16.09 Overcast OVC009 -6.1 -8.3 85% -12 75.77 1010.4
06 05:53 N 19 12.87 Light Snow OVC010 -6.1 -7.8 88% -12 75.77 1010.3
06 04:53 N 17 14.48 Overcast OVC010 -5.6 -7.8 85% -11 75.77 1010.3
06 03:53 N 19 16.09 Overcast OVC011 -5.6 -7.8 -5 -5.6 85% -12 75.77 1010.2
06 02:53 N 20 12.87 Light Snow BKN010 BKN014 OVC038 -5.6 -7.8 85% -12 75.77 1010.2
06 01:53 N 19 16.09 Overcast OVC012 -5.6 -8.3 82% -12 75.77 1010.3
06 00:53 N 15 16.09 Overcast BKN013 BKN060 OVC070 -5.6 -8.3 82% -11 75.77 1010.1
05 23:53 N 13 16.09 Overcast SCT013 BKN019 OVC065 -5.6 -7.8 85% -10 75.77 1010.2
05 22:53 N 17 8.05 Light Snow Fog/Mist BKN014 OVC021 -5 -7.2 85% -10 75.77 1010.2
05 21:53 N 15 16.09 Overcast OVC015 -5 -7.8 -4.4 -5 81% -10 75.77 1010.3
05 20:53 N 15 16.09 Overcast OVC017 -5 -7.8 81% -10 75.77 1010.4
05 19:53 N 15 16.09 Overcast OVC012 -5 -7.8 81% -10 75.79 1010.5
05 18:53 N 19 16.09 Overcast OVC012 -5 -7.2 85% -11 75.79 1010.5
05 17:53 N 15 12.87 Light Snow OVC011 -4.4 -7.2 81% -9 75.79 1010.5
05 16:53 N 13 11.27 Light Snow OVC010 -5 -7.2 85% -10 75.79 1010.6
05 15:53 N 13 14.48 Overcast OVC010 -4.4 -6.7 -3.9 -5 84% -9 75.79 1010.7
05 14:53 NE 15 9.66 Light Snow Fog/Mist OVC010 -4.4 -6.7 84% -9 75.82 1010.8
05 13:53 N 17 16.09 Overcast SCT008 OVC019 -3.9 -6.1 85% -9 75.82 1010.9
05 12:53 N 11 16.09 Overcast OVC007 -4.4 -6.1 88% -8 75.84 1011.1
05 11:53 NE 11 14.48 Overcast OVC008 -4.4 -6.7 84% -8 75.84 1011.2
05 10:53 N 11 12.87 Light Snow OVC023 -5 -6.7 88% -9 75.87 1011.5
05 09:53 NE 9 12.87 Light Snow BKN021 OVC029 -5 -6.7 -5 -5.6 88% -9 75.9 1011.8
05 08:53 NE 11 12.87 Light Snow FEW012 OVC028 -5 -6.7 88% -9 75.92 1012.1
05 07:53 NE 9 16.09 Overcast OVC009 -5 -6.7 88% -9 75.92 1012.3
05 06:53 NE 7 16.09 Overcast OVC005 -5 -6.7 88% -8 75.95 1012.6
05 05:53 E 6 16.09 Overcast OVC004 -5.6 -6.7 92% 75.97 1013.0
05 04:53 E 11 11.27 Light Snow BKN007 OVC026 -5 -6.1 92% -9 76 1013.3
05 03:53 E 6 6.44 Light Snow Fog/Mist OVC006 -4.4 -5.6 -3.9 -5 91% 76.02 1013.6
05 02:53 E 9 14.48 Overcast OVC005 -4.4 -5.6 91% -8 76.05 1014.1
05 01:53 E 7 16.09 Overcast OVC008 -4.4 -5.6 91% -7 76.1 1014.6
05 00:53 SE 7 16.09 Overcast OVC013 -4.4 -5.6 91% -7 76.12 1014.8
04 23:53 SE 9 12.87 Overcast OVC012 -4.4 -5.6 91% -8 76.15 1015.2
04 22:53 SE 11 8.05 Fog/Mist OVC005 -3.9 -5 92% -8 76.17 1015.6
04 21:53 SE 19 8.05 Fog/Mist OVC009 -3.9 -5 -2.8 -3.9 92% -9 76.2 1015.8 0.03 0.03
04 20:53 SE 20 2.82 Light Snow Fog/Mist FEW006 OVC012 -3.3 -5 88% -9 76.2 1016.1
04 19:53 SE 20 4.83 Light Snow Fog/Mist OVC009 -3.3 -4.4 92% -9 76.23 1016.5
04 18:53 SE 24 16.09 Overcast OVC008 -3.3 -4.4 92% -10 76.25 1016.8
04 17:53 SE 24 16.09 Overcast OVC007 -3.3 -4.4 92% -10 76.3 1017.2
04 16:53 SE 31 16.09 Overcast OVC006 -2.8 -4.4 89% -10 76.33 1017.5
04 15:53 SE 35 16.09 Overcast and Breezy OVC007 -2.8 -4.4 -2.8 -6.1 89% -10 76.33 1017.7
04 14:53 SE 33 16.09 Overcast and Breezy BKN011 OVC085 -3.3 -5 88% -11 76.35 1018.1
04 13:53 SE 28 16.09 Overcast OVC085 -3.3 -5.6 84% -10 76.38 1018.5
04 12:53 SE 33 16.09 Overcast and Breezy OVC085 -3.9 -5.6 88% -11 76.4 1018.7
04 11:53 SE 30 16.09 Overcast BKN033 OVC080 -4.4 -6.7 84% -12 76.43 1019.1
04 10:53 SE 28 16.09 Overcast FEW039 OVC080 -5 -8.3 78% -12 76.45 1019.3
04 09:53 SE 24 16.09 Overcast BKN040 OVC075 -6.1 -8.3 -5.6 -6.7 85% -13 76.48 1019.6
04 08:53 S 26 16.09 Overcast OVC070 -6.1 -8.3 85% -13 76.45 1019.5
04 07:53 SE 22 16.09 Overcast FEW047 OVC065 -6.1 -8.9 81% -13 76.45 1019.4
04 06:53 SE 17 16.09 Overcast OVC047 -6.1 -8.3 85% -12 76.45 1019.4
04 05:53 SE 24 16.09 Overcast OVC044 -6.1 -8.3 85% -13 76.45 1019.4
Date Time (akdt) Wind (kph) Vis. (km) Weather Sky Cond. Air Dwpt Max. Min. Relative Humidity Wind Chill (°C) Heat Index (°C) altimeter (cm) sea level (mb) 1 hr 3 hr 6 hr
6 hour
Temperature (ºC) Pressure Precipitation (cm)